Regional Weather Roundup
Issued by NWS Goodland, KS

Home | Current Version | Previous Version | Graphics & Text | Print | Product List | Glossary On
Versions: 1 2 3 4 5 6 7 8 9 10 11 12 13 14 15 16 17 18 19 20 21 22 23 24 25 26 27 28 29 30 31 32 33 34 35 36 37 38 39 40 41 42 43 44 45 46 47 48 49 50
000
ASUS43 KGLD 241559
RWRGLD

GOODLAND FORECAST AREA HOURLY WEATHER ROUNDUP
NATIONAL WEATHER SERVICE GOODLAND KS
1000 AM MDT SAT SEP 24 2016

...OFFICIAL OBSERVATIONS...

CITY           SKY/WX    TMP DP  RH WIND       PRES   REMARKS
GOODLAND KS    PTSUNNY   61  42  49 NW9       30.02R
HILL CITY KS   CLOUDY    64  52  64 NW9       29.95S
IMPERIAL NEB   SUNNY     61  41  47 NW6       29.99S
MCCOOK NEB     SUNNY     62  47  57 NW8       29.96S
AKRON CO       SUNNY     58  36  43 VRB7      30.03R
BURLINGTON CO  SUNNY     57  40  52 N8        30.05R
LIMON CO       SUNNY     57  35  43 SE10      30.06R
$$

...UNOFFICIAL OBSERVATIONS...

CITY           SKY/WX    TMP DP  RH WIND       PRES   REMARKS
COLBY KS       SUNNY     64  46  52 NW9       30.01F
LENORA KS        N/A     62  32  32 MISG        N/A
NORTON KS      MOSUNNY   61  43  51 NW10      29.96R
SHARON SPRINGS   N/A     59  47  63 N7          N/A
KIT CARSON CO    N/A     57  44  61 CALM        N/A
$$



USA.gov is the U.S. government's official web portal to all federal, state and local government web resources and services.